[[{"header":{"parameterUnit":"m.s-1","parameterCategory":1,"la1":30.2991,"la2":30.254,"lo1":-89.0895,"lo2":-89.0444,"dx":0.0017,"dy":0.0017,"nx":28,"ny":28,"refTime":"2022-12-13T09:00:00:Z","depth":0,"parameterNumber":2,"parameterNumberName":"U-component_of_WINDS"},"data":[0,0,0,0,0,0,0,0,0,0,0,0,0,0,0,0,0,0,0,0,0,0,0,0,0,0,0,0,0,0,0,0,0,0,0,0,0,0,0,0,0,0,0,0,0,0,0,0,0,0,0,0,0,0,0,0,0,0,-1.4155,-1.4156,0,-1.4252,-1.4253,-1.4254,-1.429,-1.429,-1.429,-1.4289,-1.4387,-1.4389,-1.4392,0,0,0,0,0,0,0,0,0,0,0,0,0,-1.4001,-1.4004,-1.4155,-1.4156,-1.4158,-1.4252,-1.4253,-1.4254,-1.429,-1.429,-1.4289,-1.4289,-1.4386,-1.4389,-1.4393,0,0,0,0,0,0,0,0,0,0,0,0,0,-1.408,-1.4005,-1.4155,-1.4187,-1.4191,-1.4251,-1.4253,-1.4255,-1.429,-1.429,-1.4289,-1.4289,-1.4385,-1.4389,-1.4393,-1.4428,0,0,-1.4406,-1.4408,0,0,0,0,0,0,0,0,-1.4075,-1.4086,-1.4181,-1.4185,-1.4189,-1.4259,-1.4234,-1.4313,-1.429,-1.4252,-1.4289,-1.4289,-1.4344,-1.4352,-1.4371,-1.4433,-1.4437,-1.4407,-1.4409,-1.4411,-1.4412,0,0,0,0,0,0,0,-1.407,-1.4082,-1.4193,-1.4182,-1.4187,-1.4196,-1.4207,-1.4249,-1.43,-1.4256,-1.4259,-1.427,-1.4346,-1.4367,-1.4373,-1.4439,-1.4406,-1.441,-1.4413,-1.4415,-1.4535,-1.4535,0,0,0,0,0,0,-1.4059,-1.4077,-1.419,-1.4196,-1.413,-1.4199,-1.4211,-1.4237,-1.4299,-1.4308,-1.427,-1.4271,-1.436,-1.4368,-1.4377,-1.4423,-1.4411,-1.4415,-1.4417,-1.4534,-1.4535,-1.4536,0,0,0,0,0,0,-1.4056,-1.4069,-1.4186,-1.4137,-1.4153,-1.4202,-1.4231,-1.4239,-1.4259,-1.431,-1.4319,-1.4281,-1.436,-1.4371,-1.4416,-1.4426,-1.4417,-1.4421,-1.4534,-1.4534,-1.4535,-1.4514,0,0,0,0,0,0,-1.4051,-1.4068,-1.4082,-1.4137,-1.4156,-1.4223,-1.4231,-1.4241,-1.4267,-1.4269,-1.4323,-1.4332,-1.436,-1.4409,-1.442,-1.4432,-1.4424,-1.4533,-1.4534,-1.4535,-1.4514,-1.4514,-1.4514,0,0,0,0,0,-1.4046,-1.4072,-1.4082,-1.4096,-1.4174,-1.4224,-1.4234,-1.4267,-1.4267,-1.4282,-1.4315,-1.433,-1.4424,-1.4413,-1.4426,-1.444,-1.4532,-1.4534,-1.4535,-1.4514,-1.4514,-1.4514,0,0,0,0,0,0,-1.4015,-1.4079,-1.4092,-1.4137,-1.4175,-1.423,-1.4249,-1.4266,-1.4304,-1.4305,-1.4343,-1.4355,-1.4396,-1.4423,-1.441,-1.4477,-1.4479,-1.4483,-1.4459,-1.4459,-1.4459,-1.4452,-1.4428,0,0,0,0,0,-1.4014,-1.4049,-1.4103,-1.4138,-1.4156,-1.4199,-1.4222,-1.4244,-1.4285,-1.4301,-1.4337,-1.4375,-1.4414,-1.4438,-1.4476,-1.4518,-1.453,-1.4534,-1.4534,-1.4534,-1.4537,-1.4561,-1.4563,-1.454,-1.454,-1.454,0,0,-1.4011,-1.4051,-1.4071,-1.4133,-1.4165,-1.42,-1.4213,-1.425,-1.4276,-1.4306,-1.4351,-1.4379,-1.4424,-1.4468,-1.4489,-1.4491,-1.4546,-1.4536,-1.4535,-1.4538,-1.4562,-1.4564,-1.4566,-1.4541,-1.4541,-1.4541,0,0,-1.4024,-1.4058,-1.409,-1.4122,-1.4171,-1.4199,-1.4207,-1.426,-1.428,-1.4325,-1.4349,-1.4381,-1.4446,-1.4477,-1.4502,-1.4528,-1.4543,-1.4539,-1.4539,-1.4562,-1.4564,-1.4566,-1.4575,-1.4577,-1.4542,-1.4541,-1.4541,0,-1.4015,-1.407,-1.4104,-1.414,-1.4167,-1.4197,-1.4229,-1.4259,-1.4317,-1.4334,-1.4336,-1.4418,-1.4451,-1.4502,-1.4509,-1.4528,-1.4538,-1.4532,-1.4561,-1.4563,-1.4565,-1.4574,-1.4577,-1.4541,-1.4541,-1.4541,-1.4541,0,-1.4055,-1.4093,-1.4113,-1.4169,-1.4198,-1.4232,-1.4272,-1.4297,-1.4316,-1.4344,-1.439,-1.4431,-1.4478,-1.4491,-1.4511,-1.4546,-1.4545,-1.4554,-1.4556,-1.4566,-1.4575,-1.4579,-1.4539,-1.454,-1.454,-1.454,0,0,-1.4051,-1.4126,-1.4133,-1.4159,-1.4215,-1.4244,-1.428,-1.4326,-1.4347,-1.4386,-1.4416,-1.4471,-1.4479,-1.4507,-1.453,-1.4551,-1.4568,-1.4557,-1.4558,-1.4557,-1.4609,-1.4602,-1.4605,-1.4579,-1.458,-1.4581,-1.4605,0,-1.4071,-1.4136,-1.4169,-1.422,-1.4255,-1.4284,-1.4315,-1.4352,-1.438,-1.4413,-1.4444,-1.4482,-1.449,-1.4507,-1.4529,-1.4561,-1.4579,-1.456,-1.4607,-1.4609,-1.4594,-1.461,-1.4603,-1.4624,-1.4609,-1.4609,-1.461,0,-1.4103,-1.4143,-1.4197,-1.4249,-1.4265,-1.4292,-1.4337,-1.4369,-1.4412,-1.4431,-1.4462,-1.4485,-1.4524,-1.4524,-1.4577,-1.4563,-1.4585,-1.4604,-1.4605,-1.461,-1.4609,-1.4615,-1.4631,-1.4634,-1.4616,-1.4615,-1.4615,0,-1.4095,-1.4161,-1.4202,-1.4224,-1.4285,-1.4304,-1.433,-1.4373,-1.4399,-1.4438,-1.4455,-1.4499,-1.4522,-1.4555,-1.4589,-1.4586,-1.4638,-1.4641,-1.4655,-1.4654,-1.4664,-1.4663,-1.4683,-1.4678,-1.4678,-1.4678,-1.4678,0,-1.4113,-1.4145,-1.4199,-1.4224,-1.4261,-1.4299,-1.4334,-1.4362,-1.44,-1.4432,-1.4459,-1.4488,-1.4531,-1.4565,-1.4592,-1.4632,-1.4642,-1.4658,-1.4665,-1.4655,-1.4653,-1.4669,-1.4668,-1.4679,-1.4679,-1.4679,-1.4679,0,-1.4109,-1.4147,-1.4194,-1.4248,-1.4263,-1.4288,-1.4334,-1.436,-1.4389,-1.4428,-1.444,-1.4486,-1.4527,-1.4564,-1.4619,-1.4637,-1.4678,-1.4686,-1.4663,-1.4667,-1.4678,-1.4676,-1.4709,-1.4715,-1.4706,-1.4706,-1.4706,0,-1.4119,-1.4144,-1.4202,-1.4225,-1.4251,-1.4288,-1.4314,-1.4352,-1.4378,-1.443,-1.4449,-1.4493,-1.453,-1.4594,-1.4632,-1.4675,-1.4684,-1.4693,-1.4691,-1.468,-1.4684,-1.4682,-1.4684,-1.4692,-1.4692,-1.4692,-1.4692,0,-1.4131,-1.4148,-1.4186,-1.423,-1.4261,-1.4297,-1.4334,-1.4351,-1.4396,-1.4424,-1.4467,-1.4496,-1.4552,-1.4595,-1.4642,-1.4669,-1.4688,-1.4693,-1.4698,-1.4688,-1.4674,-1.4681,-1.4662,-1.4691,-1.4692,-1.4692,-1.4692,-1.4692,-1.4134,-1.4158,-1.4202,-1.4243,-1.4275,-1.4309,-1.4336,-1.4368,-1.4405,-1.4454,-1.4474,-1.4518,-1.4561,-1.4625,-1.4652,-1.4687,-1.4691,-1.4698,-1.47,-1.4701,-1.4699,-1.4669,-1.4696,-1.4696,-1.4696,-1.4696,-1.4696,0,-1.4147,-1.4177,-1.4214,-1.4266,-1.4298,-1.4313,-1.4355,-1.4381,-1.4419,-1.4458,-1.4493,-1.4543,-1.4585,-1.4626,-1.467,-1.469,-1.47,-1.47,-1.4699,-1.4705,-1.4694,-1.4685,-1.4692,-1.4692,-1.4692,-1.4692,-1.4692,-1.4692,-1.4158,-1.4199,-1.4222,-1.4279,-1.4309,-1.4352,-1.4375,-1.4406,-1.4437,-1.4491,-1.4526,-1.4553,-1.4593,-1.4641,-1.468,-1.4691,-1.4706,-1.4704,-1.4717,-1.4706,-1.4706,-1.4706,-1.4697,-1.4707,-1.4707,-1.4725,-1.4725,-1.4725]},{"header":{"parameterUnit":"m.s-1","parameterCategory":1,"la1":30.2991,"la2":30.254,"lo1":-89.0895,"lo2":-89.0444,"dx":0.0017,"dy":0.0017,"nx":28,"ny":28,"refTime":"2022-12-13T09:00:00:Z","depth":0,"parameterNumber":3,"parameterNumberName":"V-component_of_WINDS"},"data":[0,0,0,0,0,0,0,0,0,0,0,0,0,0,0,0,0,0,0,0,0,0,0,0,0,0,0,0,0,0,0,0,0,0,0,0,0,0,0,0,0,0,0,0,0,0,0,0,0,0,0,0,0,0,0,0,0,0,5.8886,5.8888,0,5.9083,5.9085,5.9087,5.9148,5.9147,5.9146,5.9145,5.9344,5.935,5.9356,0,0,0,0,0,0,0,0,0,0,0,0,0,5.856,5.8566,5.8886,5.8888,5.8891,5.9083,5.9085,5.9088,5.9148,5.9147,5.9146,5.9145,5.9342,5.9349,5.9356,0,0,0,0,0,0,0,0,0,0,0,0,0,5.8724,5.8568,5.8885,5.8944,5.8951,5.9082,5.9085,5.9089,5.9148,5.9147,5.9146,5.9144,5.9339,5.9348,5.9357,5.9443,0,0,5.9386,5.939,0,0,0,0,0,0,0,0,5.8715,5.8736,5.8933,5.894,5.8948,5.909,5.9044,5.9207,5.9149,5.9073,5.9145,5.9144,5.926,5.9276,5.9316,5.9452,5.9461,5.9386,5.9392,5.9396,5.9399,0,0,0,0,0,0,0,5.8703,5.8728,5.8964,5.8936,5.8945,5.896,5.8982,5.9075,5.9172,5.908,5.9085,5.9107,5.9264,5.9307,5.9321,5.9464,5.9386,5.9394,5.94,5.9404,5.9685,5.9687,0,0,0,0,0,0,5.8682,5.8718,5.8957,5.897,5.8826,5.8967,5.8991,5.9046,5.9171,5.9189,5.9108,5.911,5.9291,5.931,5.9328,5.944,5.9396,5.9405,5.941,5.9683,5.9685,5.9688,0,0,0,0,0,0,5.8675,5.8703,5.8949,5.8845,5.8878,5.8974,5.9035,5.905,5.9093,5.9193,5.921,5.9134,5.9291,5.9315,5.9415,5.9448,5.9409,5.9417,5.9681,5.9684,5.9686,5.9663,0,0,0,0,0,0,5.8665,5.87,5.8734,5.8846,5.8883,5.9034,5.9037,5.9055,5.9109,5.9113,5.9222,5.9239,5.9292,5.9401,5.9424,5.946,5.9424,5.9678,5.9682,5.9686,5.9661,5.9665,5.9668,0,0,0,0,0,5.8654,5.8717,5.8735,5.8764,5.8927,5.9035,5.9057,5.9118,5.9112,5.9147,5.9211,5.9235,5.944,5.9411,5.9438,5.9476,5.9677,5.9681,5.9685,5.966,5.9664,5.9667,0,0,0,0,0,0,5.8605,5.8733,5.8754,5.8856,5.8935,5.9045,5.9091,5.912,5.92,5.92,5.9271,5.9295,5.9391,5.9443,5.9409,5.9568,5.9559,5.9569,5.9531,5.9536,5.9539,5.9525,5.9432,0,0,0,0,0,5.8606,5.8684,5.8791,5.8871,5.891,5.8994,5.9043,5.9083,5.9167,5.92,5.9272,5.9352,5.9435,5.9487,5.9569,5.9668,5.9695,5.9708,5.9711,5.9714,5.9722,5.9782,5.9791,5.9702,5.9702,5.9702,0,0,5.8609,5.8689,5.8733,5.8864,5.8929,5.9009,5.9021,5.9103,5.9164,5.9212,5.9313,5.9368,5.9462,5.9564,5.9612,5.961,5.9752,5.9719,5.972,5.9728,5.9788,5.9796,5.9803,5.9705,5.9704,5.9704,0,0,5.8657,5.8723,5.88,5.8866,5.8966,5.9022,5.904,5.9148,5.9187,5.9289,5.9329,5.9401,5.9541,5.9607,5.9659,5.9735,5.9761,5.9759,5.9776,5.9834,5.9841,5.9848,5.9878,5.9888,5.9766,5.9766,5.9766,0,5.8648,5.877,5.8834,5.8917,5.8974,5.9024,5.9102,5.9162,5.9283,5.9322,5.9318,5.9498,5.9564,5.9684,5.9703,5.9742,5.9766,5.9748,5.9835,5.9842,5.985,5.9879,5.989,5.9766,5.9766,5.9766,5.9766,0,5.8756,5.884,5.8889,5.9008,5.907,5.9149,5.9226,5.9281,5.9317,5.9373,5.9478,5.956,5.966,5.9691,5.9725,5.9817,5.9813,5.9821,5.9814,5.9856,5.9886,5.9897,5.9765,5.9765,5.9765,5.9766,0,0,5.8777,5.8933,5.895,5.9007,5.9122,5.9188,5.927,5.9371,5.9418,5.95,5.9572,5.9691,5.9701,5.976,5.9802,5.9852,5.9911,5.9855,5.9858,5.9865,6.0021,6.0017,6.0028,5.9929,5.9931,5.9933,6.0015,0,5.8842,5.8993,5.9055,5.9177,5.9258,5.9307,5.9379,5.9458,5.9513,5.9589,5.9649,5.9734,5.9738,5.9775,5.9827,5.9893,5.9944,5.9888,5.9998,6.0001,5.9976,6.0043,6.0038,6.0111,6.0026,6.0028,6.0029,0,5.8937,5.9024,5.9154,5.9264,5.93,5.9363,5.9463,5.9534,5.9625,5.9661,5.9729,5.9769,5.9858,5.9844,5.9969,5.993,5.9978,6.0017,6.0022,6.0037,6.0019,6.0063,6.0136,6.0148,6.0047,6.0046,6.0045,0,5.8945,5.9092,5.9191,5.9237,5.9366,5.941,5.9466,5.9555,5.9613,5.9699,5.9737,5.9831,5.9883,5.9955,6.002,6.0003,6.014,6.013,6.0175,6.0173,6.0203,6.0201,6.0288,6.0229,6.0229,6.0229,6.0228,0,5.9012,5.9091,5.9197,5.9258,5.9348,5.9419,5.9506,5.9565,5.9645,5.9719,5.9765,5.9833,5.9914,5.9992,6.0043,6.0141,6.0163,6.0196,6.0209,6.0194,6.019,6.0228,6.0226,6.0232,6.0231,6.023,6.023,0,5.9036,5.911,5.9222,5.9335,5.9366,5.9428,5.9526,5.9587,5.9645,5.9738,5.9763,5.9854,5.9949,6.0021,6.0143,6.0177,6.0283,6.0294,6.0253,6.026,6.0302,6.0298,6.0419,6.0439,6.0363,6.0364,6.0364,0,5.9076,5.9138,5.926,5.9314,5.937,5.9455,5.9515,5.9586,5.9647,5.9757,5.9806,5.9904,5.9988,6.0137,6.0214,6.0309,6.0325,6.0361,6.034,6.0323,6.033,6.0327,6.0335,6.0364,6.0365,6.0365,6.0366,0,5.9139,5.9174,5.9259,5.9358,5.9429,5.951,5.9591,5.9632,5.9719,5.9784,5.9884,5.9948,6.0075,6.0174,6.0277,6.0333,6.0365,6.0372,6.0388,6.0374,6.0349,6.0367,6.0264,6.0369,6.0369,6.0368,6.0368,6.0368,5.9175,5.9234,5.9331,5.9425,5.9494,5.9571,5.9635,5.9703,5.9787,5.9897,5.9934,6.0037,6.0129,6.0271,6.0329,6.0411,6.0411,6.0433,6.0439,6.0444,6.0445,6.0333,6.0429,6.0429,6.0429,6.0429,6.0429,0,5.9244,5.9309,5.9395,5.951,5.9584,5.9608,5.9701,5.9762,5.9853,5.9936,6.0018,6.0133,6.023,6.0315,6.0415,6.0465,6.0482,6.0489,6.0487,6.0501,6.0437,6.0415,6.0474,6.0474,6.0474,6.0474,6.0473,6.0473,5.9289,5.9392,5.9438,5.9577,5.9641,5.9745,5.9796,5.9867,5.9935,6.0062,6.0143,6.0198,6.0284,6.0391,6.0481,6.0504,6.054,6.0544,6.057,6.051,6.0505,6.05,6.0479,6.055,6.055,6.0627,6.0628,6.0628]}]]